Weather History for KRQB - November, 2013

Change the Weather History Date:

Sunday, November 24, 2013

  Actual Average Record
Temperature  
Mean Temperature 18 °F -  
Max Temperature 23 °F 40 °F 62 °F (2001)
Min Temperature 14 °F 25 °F 8 °F (1989)
Degree Days  
Heating Degree Days 46    
Moisture  
Dew Point 11 °F    
Average Humidity 73    
Maximum Humidity 85    
Minimum Humidity 56    
Precipitation  
Precipitation 0.00 in - - ()
Sea Level Pressure  
Sea Level Pressure 30.46 in    
Wind  
Wind Speed 6 mph (West)    
Max Wind Speed 13 mph    
Max Gust Speed 17 mph    
Visibility 10 miles    
Events Snow    
Averages and records for this station are not official NWS values.
T = Trace of Precipitation, MM = Missing Value Source: NWS Daily Summary

Daily Weather History Graph

Daily Weather History Graph

Search for Another Location

Airport or City:

Trip Planner

Search our weather history database for the weather conditions in past years. The results will help you decide how hot, cold, wet, or windy it might be!

Date:

Astronomy

Nov. 24, 2013 Rise Set
Actual Time 7:47 AM EST 5:09 PM EST
Civil Twilight 7:16 AM EST 5:41 PM EST
Nautical Twilight 6:40 AM EST 6:16 PM EST
Astronomical Twilight 6:06 AM EST 6:50 PM EST
Moon 11:40 PM EST (11/24) 12:29 PM EST (11/24)
Length of Visible Light 10h 24m
Length of Day
9h 21m
Waning Gibbous, 61% of the Moon is Illuminated
Nov 24
Waning Gibbous
Nov 25
Last Quarter
Dec 2
New
Dec 9
First Quarter
Dec 17
Full

Hourly Weather History & Observations

Time (EST) Temp. Windchill Dew Point Humidity Pressure Visibility Wind Dir Wind Speed Gust Speed Precip Events Conditions
12:15 AM 14.5 °F 5.7 °F 9.5 °F 80% 30.51 in 10.0 mi WNW 5.8 mph - N/A   Clear
12:34 AM 14.0 °F 6.5 °F 9.5 °F 82% 30.51 in 10.0 mi WNW 4.6 mph - N/A   Scattered Clouds
12:55 AM 14.0 °F 3.9 °F 10.0 °F 84% 30.50 in 10.0 mi West 6.9 mph - N/A   Mostly Cloudy
1:15 AM 14.0 °F 6.5 °F 9.7 °F 83% 30.50 in 10.0 mi WNW 4.6 mph - N/A   Scattered Clouds
1:34 AM 14.2 °F 6.7 °F 10.0 °F 84% 30.50 in 10.0 mi West 4.6 mph - N/A   Scattered Clouds
1:55 AM 15.6 °F 10.0 °F 11.7 °F 84% 30.50 in 5.0 mi West 3.5 mph - N/A Snow Light Snow
2:15 AM 16.0 °F 6.3 °F 12.2 °F 85% 30.50 in 4.0 mi West 6.9 mph - N/A Snow Light Snow
2:35 AM 16.3 °F 7.8 °F 12.2 °F 84% 30.51 in 5.0 mi West 5.8 mph - N/A Snow Light Snow
2:55 AM 16.5 °F 8.1 °F 12.2 °F 83% 30.51 in 5.0 mi WNW 5.8 mph - N/A Snow Light Snow
3:14 AM 16.7 °F 8.3 °F 12.2 °F 82% 30.51 in 5.0 mi West 5.8 mph - N/A Snow Light Snow
3:35 AM 16.7 °F 9.6 °F 12.4 °F 83% 30.51 in 7.0 mi WNW 4.6 mph - N/A Snow Light Snow
3:55 AM 16.5 °F 9.4 °F 12.6 °F 84% 30.50 in 10.0 mi WNW 4.6 mph - N/A   Overcast
4:14 AM 16.7 °F 7.2 °F 12.2 °F 82% 30.50 in 10.0 mi WNW 6.9 mph - N/A   Overcast
4:35 AM 16.3 °F 9.2 °F 11.8 °F 82% 30.50 in 10.0 mi WNW 4.6 mph - N/A Snow Light Snow
4:54 AM 16.2 °F 10.6 °F 12.0 °F 84% 30.50 in 10.0 mi WNW 3.5 mph - N/A Snow Light Snow
5:15 AM 16.5 °F - 12.2 °F 83% 30.50 in 10.0 mi Calm Calm - N/A   Mostly Cloudy
5:35 AM 17.1 °F 8.7 °F 12.9 °F 84% 30.51 in 7.0 mi West 5.8 mph - N/A Snow Light Snow
5:54 AM 17.2 °F 10.2 °F 12.7 °F 83% 30.51 in 10.0 mi West 4.6 mph - N/A Snow Light Snow
6:15 AM 17.2 °F 10.2 °F 12.7 °F 83% 30.52 in 10.0 mi West 4.6 mph - N/A   Overcast
6:35 AM 17.6 °F 9.3 °F 13.1 °F 83% 30.52 in 7.0 mi West 5.8 mph - N/A Snow Light Snow
6:54 AM 17.6 °F 10.7 °F 12.9 °F 82% 30.52 in 7.0 mi WNW 4.6 mph - N/A Snow Light Snow
7:15 AM 17.6 °F 8.2 °F 12.7 °F 81% 30.52 in 10.0 mi WNW 6.9 mph - N/A Snow Light Snow
7:35 AM 17.6 °F 9.3 °F 12.6 °F 81% 30.52 in 10.0 mi WNW 5.8 mph - N/A   Overcast
7:54 AM 17.6 °F 12.3 °F 12.2 °F 79% 30.52 in 10.0 mi WNW 3.5 mph - N/A   Overcast
8:15 AM 17.6 °F 12.3 °F 12.2 °F 79% 30.53 in 10.0 mi WNW 3.5 mph - N/A   Overcast
8:35 AM 18.1 °F - 12.2 °F 78% 30.53 in 10.0 mi Calm Calm - N/A   Overcast
8:54 AM 18.3 °F 11.5 °F 11.8 °F 76% 30.54 in 10.0 mi West 4.6 mph - N/A   Overcast
9:15 AM 18.9 °F 8.8 °F 12.4 °F 76% 30.54 in 10.0 mi West 8.1 mph - N/A   Overcast
9:35 AM 19.2 °F 10.2 °F 12.6 °F 75% 30.54 in 10.0 mi West 6.9 mph - N/A   Overcast
9:54 AM 19.4 °F 9.5 °F 12.6 °F 75% 30.55 in 10.0 mi West 8.1 mph - N/A   Overcast
10:15 AM 20.1 °F 10.3 °F 12.4 °F 72% 30.55 in 10.0 mi West 8.1 mph - N/A   Overcast
10:35 AM 20.5 °F 10.8 °F 11.7 °F 69% 30.55 in 10.0 mi West 8.1 mph - N/A   Overcast
10:55 AM 20.7 °F 11.9 °F 11.7 °F 68% 30.54 in 10.0 mi WNW 6.9 mph - N/A   Overcast
11:15 AM 20.8 °F 13.2 °F 9.9 °F 63% 30.54 in 10.0 mi NW 5.8 mph - N/A   Overcast
11:34 AM 21.7 °F 12.3 °F 10.6 °F 62% 30.54 in 10.0 mi WNW 8.1 mph - N/A   Overcast
11:55 AM 21.2 °F 12.6 °F 10.0 °F 62% 30.53 in 10.0 mi West 6.9 mph - N/A Snow Light Snow
12:15 PM 21.4 °F 11.9 °F 10.6 °F 63% 30.52 in 10.0 mi West 8.1 mph - N/A Snow Light Snow
12:34 PM 21.7 °F 9.6 °F 10.8 °F 63% 30.51 in 10.0 mi West 12.7 mph - N/A   Overcast
12:55 PM 22.1 °F 11.3 °F 9.9 °F 59% 30.50 in 10.0 mi WNW 10.4 mph - N/A   Overcast
1:15 PM 21.9 °F 12.5 °F 11.5 °F 64% 30.50 in 10.0 mi West 8.1 mph - N/A Snow Light Snow
1:34 PM 22.6 °F 14.3 °F 10.9 °F 61% 30.49 in 10.0 mi West 6.9 mph - N/A   Overcast
1:55 PM 22.8 °F 12.2 °F 11.5 °F 62% 30.48 in 10.0 mi West 10.4 mph - N/A   Overcast
2:15 PM 22.6 °F 11.3 °F 11.7 °F 63% 30.48 in 10.0 mi West 11.5 mph 17.3 mph N/A Snow Light Snow
2:34 PM 22.8 °F 13.6 °F 12.0 °F 63% 30.48 in 10.0 mi West 8.1 mph - N/A Snow Light Snow
2:55 PM 22.8 °F 12.9 °F 12.2 °F 64% 30.47 in 10.0 mi West 9.2 mph - N/A   Overcast
3:15 PM 22.6 °F 12.6 °F 11.3 °F 62% 30.47 in 10.0 mi West 9.2 mph - N/A   Overcast
3:34 PM 23.0 °F 17.0 °F 11.7 °F 62% 30.47 in 10.0 mi WNW 4.6 mph - N/A   Overcast
3:55 PM 23.5 °F 13.7 °F 9.7 °F 56% 30.46 in 10.0 mi NW 9.2 mph - N/A   Overcast
4:14 PM 22.6 °F 11.9 °F 9.9 °F 58% 30.45 in 10.0 mi West 10.4 mph - N/A   Scattered Clouds
4:35 PM 22.5 °F 13.2 °F 9.3 °F 57% 30.45 in 10.0 mi SW 8.1 mph - N/A   Clear
4:55 PM 21.9 °F 13.4 °F 9.9 °F 60% 30.43 in 10.0 mi WSW 6.9 mph - N/A   Scattered Clouds
5:14 PM 21.2 °F 13.6 °F 9.9 °F 62% 30.42 in 10.0 mi SW 5.8 mph - N/A   Mostly Cloudy
5:35 PM 20.7 °F 13.0 °F 9.7 °F 63% 30.42 in 10.0 mi SSW 5.8 mph - N/A   Scattered Clouds
5:55 PM 20.1 °F - 10.0 °F 65% 30.41 in 10.0 mi Calm Calm - N/A   Scattered Clouds
6:14 PM 19.9 °F 14.9 °F 10.2 °F 66% 30.41 in 10.0 mi SSW 3.5 mph - N/A   Scattered Clouds
6:35 PM 19.8 °F 14.7 °F 10.6 °F 68% 30.40 in 10.0 mi South 3.5 mph - N/A   Scattered Clouds
6:55 PM 19.4 °F 14.3 °F 10.9 °F 70% 30.39 in 10.0 mi SSW 3.5 mph - N/A   Clear
7:14 PM 19.8 °F 13.2 °F 11.1 °F 69% 30.38 in 10.0 mi SSW 4.6 mph - N/A   Clear
7:35 PM 19.4 °F 14.3 °F 10.8 °F 69% 30.37 in 10.0 mi SSW 3.5 mph - N/A   Clear
7:55 PM 19.4 °F 12.8 °F 10.6 °F 69% 30.36 in 10.0 mi South 4.6 mph - N/A   Clear
8:14 PM 18.9 °F 13.7 °F 10.4 °F 70% 30.35 in 10.0 mi South 3.5 mph - N/A   Clear
8:35 PM 18.3 °F 11.5 °F 11.5 °F 75% 30.34 in 10.0 mi SSE 4.6 mph - N/A   Clear
8:55 PM 18.5 °F 10.4 °F 11.8 °F 75% 30.32 in 10.0 mi South 5.8 mph - N/A   Clear
9:14 PM 18.9 °F 12.1 °F 11.8 °F 74% 30.31 in 10.0 mi South 4.6 mph - N/A   Clear
9:35 PM 19.4 °F 11.5 °F 12.2 °F 74% 30.30 in 10.0 mi South 5.8 mph - N/A   Clear
9:55 PM 19.4 °F 12.8 °F 12.2 °F 74% 30.29 in 10.0 mi South 4.6 mph - N/A   Clear
10:15 PM 20.1 °F 11.3 °F 12.7 °F 73% 30.27 in 10.0 mi South 6.9 mph - N/A   Clear
10:35 PM 20.5 °F 11.7 °F 12.9 °F 73% 30.25 in 10.0 mi South 6.9 mph - N/A   Clear
10:55 PM 21.0 °F 12.4 °F 12.9 °F 71% 30.25 in 10.0 mi South 6.9 mph - N/A   Clear
11:15 PM 21.6 °F 14.0 °F 12.7 °F 69% 30.26 in 10.0 mi SW 5.8 mph - N/A   Clear
11:35 PM 21.6 °F 14.0 °F 12.6 °F 68% 30.25 in 10.0 mi SSW 5.8 mph - N/A   Clear
11:55 PM 21.6 °F 15.3 °F 12.2 °F 67% 30.26 in 10.0 mi SW 4.6 mph - N/A   Clear